COSMOS 2251 DEB, 35073

Orbit data source: Space-Track

COSMOS 2251 DEB, 35073 is space debris in LEO originally from a launch on Wed, 16 Jun 1993 UTC launched from the Plesetsk Missile And Space Complex (PKMTR). The debris from Iridium 33, an American commercial communications satellite, has been tracked extensively since its accidental collision with the defunct Russian satellite Cosmos 2251 in 2009. This event, occurring at high speed in low Earth orbit (LEO), generated thousands of pieces of space debris, significantly increasing the risk of further collisions. The Iridium 33 debris cloud has impacted space traffic management and orbital debris mitigation strategies, making it a subject of ongoing study in space situational awareness.

Loading next visibility...
Identifier
35073, 1993-036AJC
Orbit
LEO
Country
Flag of CISCIS
Related business
Manufacturer
Unknown
Mission
Spacecraft
Bus & Motor
Unknown
Mass
Unknown
Launch date (UTC)
1993-06-16 (33 years ago)
Launch vehicle
Unknown
Launch site
Plesetsk Missile And Space Complex (PKMTR)
Object type
Payload
Rocket body
Debris
Shape & HBR
Unknown shape, 0.1 m
Radar Cross Section
Small (<0.1 m²)

Expand to show TLE details & history
Last TLE update: 4 days ago

TLE from 4 days ago
0 COSMOS 2251 DEB
1 35073U 93036AJC 26032.21525523  .00033366  00000-0  23057-2 0  9997
2 35073  73.9936 227.2851 0011569 336.1003  23.9648 15.05536773682372
Epoch: 2026-02-01T05:09Z
TLE epoch observation values (Epoch: 2026-02-01T05:09:58.051Z)
Latitude
-0.00003°
Longitude
18.36512°
Altitude
545.227 km
Speed
7.594 km/s
True Right ascension
15h 09m 08s
True Declination
0° 00' 00"
Sunlit
Object was in daylight at epoch
Visualization orbit readout
Latitude
Unknown
Longitude
Unknown
Altitude
Unknown
Speed
Unknown
Apparent Right ascension
Unknown
Apparent Declination
Unknown
Sunlit
N/A
Visualization observer readout
Local Sidereal Time
05:56:23
Azimuth
Unknown
Elevation
Unknown
Doppler factor
Unknown
Orbital elements
Apogee altitude
555.422 km
Perigee altitude
539.398 km
Semi-major axis
6,925.547 km
Eccentricity
0.00116
Inclination
73.9936°
RAAN
227.2851°
Arg. of periapsis
336.1003°
True anomaly
24.01872°
Mean anomaly
23.9648°
Eccentric anomaly
23.99175°
Mean motion
3.76584 °/min
Orbital period
95.6 mins
BSTAR
0.0023057
Loading maneuver chart data...
Computing Atmospheric mass density...

Documentation

Showing up to 5 results
|